CW8721 Weather Reports


Display with metric or nautical units.
time (UTC)temp
F
wind
direction
speed
MPH
gust
MPH
rain 1hr
in
rain 24hr
in
rain mn
in
humidity
%
barometer
mb
20260508224559 78 299 6.0 15.0 0.00 0.00 0.00 20 1007.9
20260508224044 77 331 10.0 15.0 0.00 0.00 0.00 18 1008.1
20260508223544 77 334 9.0 18.0 0.00 0.00 0.00 20 1008.0
20260508223051 77 5 10.0 18.0 0.00 0.00 0.00 19 1008.2
20260508222546 77 322 10.0 17.0 0.00 0.00 0.00 19 1008.3
20260508222043 77 323 9.0 14.0 0.00 0.00 0.00 20 1008.3
20260508221543 77 42 8.0 16.0 0.00 0.00 0.00 20 1008.3
20260508221044 77 19 7.0 16.0 0.00 0.00 0.00 20 1008.4
20260508220543 77 342 7.0 14.0 0.00 0.00 0.00 20 1008.4
20260508220050 77 313 5.0 17.0 0.00 0.00 0.00 21 1008.6
20260508215542 77 350 12.0 18.0 0.00 0.00 0.00 20 1008.7
20260508215042 77 310 12.0 18.0 0.00 0.00 0.00 20 1008.7
20260508214542 77 327 7.0 16.0 0.00 0.00 0.00 21 1008.8
20260508214041 76 321 8.0 15.0 0.00 0.00 0.00 22 1008.8
20260508213540 76 345 8.0 18.0 0.00 0.00 0.00 22 1008.8
20260508213043 76 321 12.0 18.0 0.00 0.00 0.00 21 1008.9
20260508212541 77 255 9.0 16.0 0.00 0.00 0.00 19 1008.9
20260508212040 76 17 9.0 17.0 0.00 0.00 0.00 20 1009.0
20260508211540 77 249 10.0 17.0 0.00 0.00 0.00 20 1009.1
20260508211040 76 307 10.0 20.0 0.00 0.00 0.00 20 1009.1
20260508210539 76 327 11.0 20.0 0.00 0.00 0.00 19 1009.1
20260508210043 77 34 8.0 16.0 0.00 0.00 0.00 20 1009.1
20260508205541 76 294 9.0 18.0 0.00 0.00 0.00 20 1009.2
20260508205038 76 296 11.0 16.0 0.00 0.00 0.00 19 1009.3
20260508204538 77 321 7.0 14.0 0.00 0.00 0.00 20 1009.5
20260508204037 77 323 9.0 18.0 0.00 0.00 0.00 20 1009.5
20260508203537 76 338 7.0 18.0 0.00 0.00 0.00 20 1009.6
20260508203042 77 12 7.0 13.0 0.00 0.00 0.00 20 1009.6
20260508202536 76 355 9.0 13.0 0.00 0.00 0.00 20 1009.6
20260508202036 76 318 10.0 17.0 0.00 0.00 0.00 19 1009.7
20260508201534 76 296 9.0 17.0 0.00 0.00 0.00 20 1009.7
20260508201034 75 295 7.0 18.0 0.00 0.00 0.00 22 1009.8
20260508200534 75 345 12.0 18.0 0.00 0.00 0.00 20 1009.8
20260508200036 75 318 8.0 14.0 0.00 0.00 0.00 23 1009.8
20260508195536 75 331 6.0 16.0 0.00 0.00 0.00 24 1009.8
20260508195033 75 331 10.0 17.0 0.00 0.00 0.00 21 1009.9
20260508194538 76 325 10.0 17.0 0.00 0.00 0.00 21 1009.8
20260508194031 75 302 10.0 16.0 0.00 0.00 0.00 22 1009.9
20260508193531 75 302 9.0 16.0 0.00 0.00 0.00 22 1009.9
20260508193031 75 319 11.0 16.0 0.00 0.00 0.00 22 1010.0
20260508192532 75 315 10.0 17.0 0.00 0.00 0.00 23 1010.0
20260508192029 74 319 12.0 17.0 0.00 0.00 0.00 23 1010.0
20260508191535 74 311 9.0 19.0 0.00 0.00 0.00 22 1010.0
20260508191028 74 301 10.0 19.0 0.00 0.00 0.00 22 1010.0
20260508190529 74 332 10.0 18.0 0.00 0.00 0.00 23 1010.1
20260508190027 74 306 9.0 18.0 0.00 0.00 0.00 23 1010.2
20260508185525 74 305 9.0 17.0 0.00 0.00 0.00 23 1010.3
20260508185025 73 308 10.0 17.0 0.00 0.00 0.00 24 1010.3
20260508184526 73 318 9.0 19.0 0.00 0.00 0.00 24 1010.3
20260508184023 72 329 10.0 18.0 0.00 0.00 0.00 24 1010.3
20260508183523 73 290 9.0 18.0 0.00 0.00 0.00 22 1010.4
20260508183028 73 309 11.0 18.0 0.00 0.00 0.00 24 1010.4
20260508182520 73 331 8.0 15.0 0.00 0.00 0.00 27 1010.4
20260508182019 72 305 8.0 15.0 0.00 0.00 0.00 27 1010.5
20260508181519 72 329 10.0 19.0 0.00 0.00 0.00 26 1010.6
20260508181018 72 340 9.0 19.0 0.00 0.00 0.00 27 1010.6
20260508180516 72 317 11.0 17.0 0.00 0.00 0.00 26 1010.6
20260508180020 72 327 10.0 19.0 0.00 0.00 0.00 26 1010.7
20260508175514 72 331 12.0 19.0 0.00 0.00 0.00 26 1010.6
20260508175014 72 318 11.0 17.0 0.00 0.00 0.00 26 1010.7
20260508174512 72 296 10.0 16.0 0.00 0.00 0.00 26 1010.7
20260508174020 71 277 9.0 18.0 0.00 0.00 0.00 26 1010.7
20260508173512 71 346 8.0 18.0 0.00 0.00 0.00 28 1010.7
20260508173012 71 321 11.0 19.0 0.00 0.00 0.00 26 1010.7
20260508172516 71 305 12.0 19.0 0.00 0.00 0.00 27 1010.8
20260508172011 71 306 9.0 18.0 0.00 0.00 0.00 29 1010.7
20260508171511 72 256 12.0 17.0 0.00 0.00 0.00 28 1010.7
20260508171007 71 309 8.0 17.0 0.00 0.00 0.00 30 1010.7
20260508170507 71 338 8.0 16.0 0.00 0.00 0.00 29 1010.7
20260508170009 70 329 11.0 16.0 0.00 0.00 0.00 30 1010.8
20260508165503 70 316 11.0 16.0 0.00 0.00 0.00 32 1010.7
20260508165003 71 275 9.0 14.0 0.00 0.00 0.00 32 1010.7
20260508164601 71 355 8.0 14.0 0.00 0.00 0.00 34 1010.7
20260508164059 70 351 9.0 17.0 0.00 0.00 0.00 34 1010.7
20260508163557 69 333 10.0 17.0 0.00 0.00 0.00 35 1010.6
20260508163056 70 321 10.0 15.0 0.00 0.00 0.00 34 1010.6
20260508162555 70 321 9.0 14.0 0.00 0.00 0.00 37 1010.5
20260508162053 69 5 8.0 12.0 0.00 0.00 0.00 36 1010.6
20260508161558 69 333 7.0 11.0 0.00 0.00 0.00 38 1010.5
20260508161051 68 24 3.0 10.0 0.00 0.00 0.00 40 1010.5
20260508160553 67 305 6.0 10.0 0.00 0.00 0.00 39 1010.5
20260508160049 67 289 6.0 10.0 0.00 0.00 0.00 39 1010.5
20260508155547 67 17 5.0 10.0 0.00 0.00 0.00 37 1010.6
20260508155046 67 13 2.0 9.0 0.00 0.00 0.00 38 1010.4
20260508154604 67 303 4.0 9.0 0.00 0.00 0.00 37 1010.6
20260508154042 67 323 4.0 9.0 0.00 0.00 0.00 38 1010.5
20260508153542 66 51 2.0 5.0 0.00 0.00 0.00 39 1010.6
20260508153041 65 336 3.0 5.0 0.00 0.00 0.00 41 1010.6
20260508152541 65 351 2.0 4.0 0.00 0.00 0.00 41 1010.6
20260508152037 64 26 0.0 3.0 0.00 0.00 0.00 44 1010.5
20260508151536 64 13 1.0 3.0 0.00 0.00 0.00 45 1010.5
20260508151035 63 36 1.0 3.0 0.00 0.00 0.00 45 1010.4
20260508150533 63 36 1.0 3.0 0.00 0.00 0.00 47 1010.4
20260508150051 62 49 0.0 2.0 0.00 0.00 0.00 46 1010.4
20260508145531 61 49 0.0 3.0 0.00 0.00 0.00 49 1010.3
20260508145030 61 49 1.0 3.0 0.00 0.00 0.00 50 1010.4
20260508144529 60 53 0.0 5.0 0.00 0.00 0.00 53 1010.3
20260508144028 60 52 2.0 5.0 0.00 0.00 0.00 52 1010.3
20260508143529 59 61 2.0 4.0 0.00 0.00 0.00 54 1010.2
20260508143025 59 53 2.0 4.0 0.00 0.00 0.00 55 1010.2
20260508142525 58 55 1.0 4.0 0.00 0.00 0.00 56 1010.1
20260508142025 57 55 0.0 4.0 0.00 0.00 0.00 58 1010.1
20260508141526 57 55 3.0 4.0 0.00 0.00 0.00 58 1010.1
20260508141024 56 57 2.0 3.0 0.00 0.00 0.00 60 1010.0
20260508140522 55 57 0.0 4.0 0.00 0.00 0.00 60 1009.9
20260508140026 55 57 3.0 4.0 0.00 0.00 0.00 61 1010.0
20260508135518 54 55 1.0 3.0 0.00 0.00 0.00 64 1010.0
20260508135018 53 55 0.0 3.0 0.00 0.00 0.00 65 1009.9
20260508134517 53 55 0.0 3.0 0.00 0.00 0.00 65 1009.9
20260508134016 52 56 1.0 3.0 0.00 0.00 0.00 67 1009.8
20260508133515 51 56 0.0 0.0 0.00 0.00 0.00 67 1009.7
20260508133014 50 56 0.0 0.0 0.00 0.00 0.00 67 1009.7
20260508132513 50 56 0.0 0.0 0.00 0.00 0.00 67 1009.7
20260508132012 50 56 0.0 0.0 0.00 0.00 0.00 67 1009.7
20260508131512 49 56 0.0 0.0 0.00 0.00 0.00 68 1009.7
20260508131015 49 360 0.0 0.0 0.00 0.00 0.00 68 1009.6
20260508130511 49 360 0.0 0.0 0.00 0.00 0.00 67 1009.4
20260508130009 49 61 0.0 0.0 0.00 0.00 0.00 65 1009.4
20260508125508 49 360 0.0 0.0 0.00 0.00 0.00 65 1009.3
20260508125006 49 360 0.0 0.0 0.00 0.00 0.00 64 1009.2
20260508124506 49 63 0.0 0.0 0.00 0.00 0.00 64 1009.1
20260508124006 50 360 0.0 0.0 0.00 0.00 0.00 65 1009.1
20260508123505 49 56 0.0 0.0 0.00 0.00 0.00 65 1009.0
20260508123005 49 56 0.0 0.0 0.00 0.00 0.00 65 1008.9
20260508122503 49 56 0.0 0.0 0.00 0.00 0.00 65 1008.9
20260508122002 49 56 0.0 0.0 0.00 0.00 0.00 64 1008.9
20260508121502 49 56 0.0 0.0 0.00 0.00 0.00 64 1008.8
20260508121002 49 56 0.0 0.0 0.00 0.00 0.00 64 1008.8
20260508120502 49 56 0.0 0.0 0.00 0.00 0.00 64 1008.7
20260508120002 50 56 0.0 0.0 0.00 0.00 0.00 62 1008.7
20260508115501 50 56 0.0 0.0 0.00 0.00 0.00 61 1008.7
20260508115100 51 57 0.0 0.0 0.00 0.00 0.00 59 1008.6
20260508114600 52 57 0.0 0.0 0.00 0.00 0.00 58 1008.7
20260508114100 52 56 0.0 0.0 0.00 0.00 0.00 60 1008.7
20260508113600 50 56 0.0 0.0 0.00 0.00 0.00 63 1008.6
20260508113100 50 56 0.0 0.0 0.00 0.00 0.00 62 1008.6
20260508112559 50 56 0.0 0.0 0.00 0.00 0.00 62 1008.6
20260508112102 50 57 0.0 0.0 0.00 0.00 0.00 61 1008.6
20260508111606 51 61 0.0 0.0 0.00 0.00 0.00 60 1008.7
20260508111059 51 360 0.0 0.0 0.00 0.00 0.00 61 1008.6
20260508110558 51 63 0.0 0.0 0.00 0.00 0.00 63 1008.6
20260508110110 50 58 0.0 0.0 0.00 0.00 0.00 66 1008.6
20260508105558 49 60 0.0 0.0 0.00 0.00 0.00 65 1008.6
20260508105056 49 60 0.0 1.0 0.00 0.00 0.00 65 1008.5
20260508104609 49 360 0.0 1.0 0.00 0.00 0.00 64 1008.6
20260508104056 49 59 0.0 0.0 0.00 0.00 0.00 64 1008.5
20260508103556 49 60 0.0 0.0 0.00 0.00 0.00 64 1008.5
20260508103056 49 62 0.0 0.0 0.00 0.00 0.00 63 1008.4
20260508102553 50 360 0.0 0.0 0.00 0.00 0.00 62 1008.3
20260508102052 50 59 0.0 0.0 0.00 0.00 0.00 61 1008.3
20260508101554 50 58 0.0 0.0 0.00 0.00 0.00 61 1008.2
20260508101052 50 57 0.0 0.0 0.00 0.00 0.00 62 1008.2
20260508100551 50 58 0.0 0.0 0.00 0.00 0.00 61 1008.2
20260508100051 50 58 0.0 0.0 0.00 0.00 0.00 61 1008.2
20260508095555 50 58 0.0 0.0 0.00 0.00 0.00 61 1008.2
20260508095050 50 58 0.0 0.0 0.00 0.00 0.00 61 1008.2
20260508094550 51 59 0.0 0.0 0.00 0.00 0.00 59 1008.2
20260508094047 51 360 0.0 0.0 0.00 0.00 0.00 58 1008.2
20260508093551 52 360 0.0 0.0 0.00 0.00 0.00 57 1008.2
20260508093049 52 360 0.0 0.0 0.00 0.00 0.00 57 1008.2
20260508092546 52 360 0.0 0.0 0.00 0.00 0.00 57 1008.0
20260508092046 51 58 0.0 0.0 0.00 0.00 0.00 57 1008.1
20260508091559 51 360 0.0 0.0 0.00 0.00 0.00 57 1008.0
20260508091044 52 57 0.0 0.0 0.00 0.00 0.00 56 1008.0
20260508090544 52 57 0.0 0.0 0.00 0.00 0.00 56 1007.9
20260508090044 53 57 0.0 0.0 0.00 0.00 0.00 55 1008.0
20260508085543 52 360 0.0 0.0 0.00 0.00 0.00 55 1008.0
20260508085046 52 360 0.0 0.0 0.00 0.00 0.00 55 1008.0
20260508084541 52 57 0.0 0.0 0.00 0.00 0.00 55 1008.0
20260508084041 52 360 0.0 0.0 0.00 0.00 0.00 54 1008.2
20260508083540 53 57 0.0 0.0 0.00 0.00 0.00 53 1008.1
20260508083048 54 60 0.0 2.0 0.00 0.00 0.00 52 1008.1
20260508082538 54 360 0.0 2.0 0.00 0.00 0.00 50 1008.2
20260508082038 55 304 0.0 0.0 0.00 0.00 0.00 48 1008.1
20260508081538 55 304 0.0 0.0 0.00 0.00 0.00 48 1008.2
20260508081038 55 360 0.0 0.0 0.00 0.00 0.00 49 1008.1
20260508080539 56 304 0.0 0.0 0.00 0.00 0.00 48 1008.1
20260508080059 56 303 0.0 0.0 0.00 0.00 0.00 48 1008.0
20260508075537 56 304 0.0 0.0 0.00 0.00 0.00 49 1008.1
20260508075037 55 303 0.0 0.0 0.00 0.00 0.00 51 1008.1
20260508074537 54 304 0.0 0.0 0.00 0.00 0.00 53 1008.1
20260508074035 54 304 0.0 0.0 0.00 0.00 0.00 53 1008.1
20260508073535 54 304 0.0 0.0 0.00 0.00 0.00 52 1008.1
20260508073040 54 304 0.0 0.0 0.00 0.00 0.00 52 1008.1
20260508072534 54 304 0.0 0.0 0.00 0.00 0.00 52 1008.0
20260508072034 54 304 0.0 0.0 0.00 0.00 0.00 52 1008.0
20260508071533 54 304 0.0 0.0 0.00 0.00 0.00 52 1007.8
20260508071031 55 304 0.0 0.0 0.00 0.00 0.00 50 1008.0
20260508070530 55 304 0.0 0.0 0.00 0.00 0.00 49 1007.8
20260508070029 56 295 0.0 0.0 0.00 0.00 0.00 47 1007.8
20260508065530 57 294 0.0 0.0 0.00 0.00 0.00 46 1007.8
20260508065028 58 294 0.0 0.0 0.00 0.00 0.00 45 1007.7
20260508064539 60 294 0.0 0.0 0.00 0.00 0.00 43 1007.7
20260508064026 60 294 0.0 0.0 0.00 0.00 0.00 40 1007.7
20260508063526 60 294 0.0 0.0 0.00 0.00 0.00 41 1007.7
20260508063028 59 294 0.0 0.0 0.00 0.00 0.00 43 1007.7
20260508062525 59 294 0.0 0.0 0.00 0.00 0.00 42 1007.8
20260508062025 57 294 0.0 0.0 0.00 0.00 0.00 45 1007.8
20260508061529 58 294 0.0 0.0 0.00 0.00 0.00 44 1007.7
20260508061022 58 294 0.0 0.0 0.00 0.00 0.00 44 1007.8
20260508060521 59 295 0.0 0.0 0.00 0.00 0.00 42 1007.7
20260508060019 61 5 0.0 0.0 0.00 0.00 0.00 39 1007.7
20260508055518 61 10 0.0 0.0 0.00 0.00 0.00 39 1007.7
20260508055018 61 10 0.0 0.0 0.00 0.00 0.00 39 1007.5
20260508054532 60 10 0.0 0.0 0.00 0.00 0.00 43 1007.5
20260508054018 59 10 0.0 0.0 0.00 0.00 0.00 44 1007.5
20260508053518 59 10 0.0 0.0 0.00 0.00 0.00 45 1007.6
20260508053019 59 10 0.0 0.0 0.00 0.00 0.00 46 1007.5
20260508052518 59 10 0.0 0.0 0.00 0.00 0.00 45 1007.4
20260508052017 59 21 0.0 0.0 0.00 0.00 0.00 45 1007.4
20260508051516 60 21 0.0 2.0 0.00 0.00 0.00 44 1007.4
20260508051018 61 19 0.0 1.0 0.00 0.00 0.00 41 1007.5
20260508050516 62 18 0.0 0.0 0.00 0.00 0.00 40 1007.3
20260508050019 62 18 0.0 0.0 0.00 0.00 0.00 40 1007.3
20260508045515 61 18 0.0 5.0 0.00 0.00 0.00 42 1007.4
20260508045015 60 18 0.0 6.0 0.00 0.00 0.00 43 1007.4
20260508044515 61 58 0.0 1.0 0.00 0.00 0.00 42 1007.5
20260508044015 61 67 0.0 2.0 0.00 0.00 0.00 43 1007.3
20260508043514 61 67 0.0 5.0 0.00 0.00 0.00 42 1007.5
20260508043014 62 58 0.0 6.0 0.00 0.00 0.00 40 1007.4
20260508042515 63 56 1.0 5.0 0.00 0.00 0.00 38 1007.3
20260508042014 63 197 0.0 1.0 0.00 0.00 0.00 36 1007.1
20260508041515 64 197 0.0 1.0 0.00 0.00 0.00 35 1007.0
20260508041014 65 197 0.0 1.0 0.00 0.00 0.00 34 1007.0
20260508040513 65 197 0.0 1.0 0.00 0.00 0.00 33 1006.9
20260508040033 66 202 0.0 1.0 0.00 0.00 0.00 32 1006.9
20260508035515 66 185 0.0 1.0 0.00 0.00 0.00 32 1006.8
20260508035019 66 177 0.0 2.0 0.00 0.00 0.00 32 1006.8
20260508034513 66 177 0.0 2.0 0.00 0.00 0.00 32 1006.8
20260508034011 66 163 0.0 2.0 0.00 0.00 0.00 32 1006.8
20260508033511 66 188 0.0 1.0 0.00 0.00 0.00 33 1006.8
20260508033011 66 188 0.0 1.0 0.00 0.00 0.00 33 1006.7
20260508032510 66 188 0.0 1.0 0.00 0.00 0.00 33 1006.8
20260508032010 66 188 0.0 1.0 0.00 0.00 0.00 33 1006.8
20260508031514 66 188 0.0 1.0 0.00 0.00 0.00 33 1007.0
20260508031009 67 360 0.0 1.0 0.00 0.00 0.00 33 1006.9
20260508030509 68 11 0.0 1.0 0.00 0.00 0.00 32 1006.8
20260508030010 68 11 0.0 0.0 0.00 0.00 0.00 32 1006.7
20260508025509 68 11 0.0 0.0 0.00 0.00 0.00 31 1006.8
20260508025011 68 5 0.0 0.0 0.00 0.00 0.00 31 1006.8
20260508024519 68 5 0.0 0.0 0.00 0.00 0.00 31 1006.8
20260508024009 68 5 0.0 0.0 0.00 0.00 0.00 30 1006.8
20260508023508 69 5 0.0 1.0 0.00 0.00 0.00 29 1006.6
20260508023010 70 5 0.0 3.0 0.00 0.00 0.00 29 1006.6
20260508022507 71 5 1.0 4.0 0.00 0.00 0.00 27 1006.7
20260508022008 72 355 2.0 4.0 0.00 0.00 0.00 26 1006.6
20260508021508 72 5 2.0 5.0 0.00 0.00 0.00 26 1006.7
20260508021007 72 345 2.0 5.0 0.00 0.00 0.00 25 1006.6
20260508020507 73 355 2.0 6.0 0.00 0.00 0.00 25 1006.6
20260508020007 73 318 4.0 6.0 0.00 0.00 0.00 25 1006.5
20260508015507 73 317 4.0 6.0 0.00 0.00 0.00 24 1006.6
20260508015006 73 313 3.0 6.0 0.00 0.00 0.00 24 1006.6
20260508014506 73 319 4.0 6.0 0.00 0.00 0.00 23 1006.6
20260508014007 73 313 4.0 6.0 0.00 0.00 0.00 23 1006.5
20260508013504 74 340 4.0 6.0 0.00 0.00 0.00 23 1006.6
20260508013005 74 316 4.0 8.0 0.00 0.00 0.00 23 1006.7
20260508012506 74 306 3.0 8.0 0.00 0.00 0.00 24 1006.8
20260508012004 74 309 3.0 8.0 0.00 0.00 0.00 23 1006.9
20260508011503 74 322 4.0 8.0 0.00 0.00 0.00 23 1006.8
20260508011004 74 301 4.0 8.0 0.00 0.00 0.00 23 1007.0
20260508010503 74 313 4.0 8.0 0.00 0.00 0.00 24 1006.9
20260508010003 74 5 2.0 5.0 0.00 0.00 0.00 24 1006.9
20260508005503 74 315 2.0 4.0 0.00 0.00 0.00 23 1006.9
20260508005002 74 300 1.0 6.0 0.00 0.00 0.00 24 1006.8
20260508004501 74 298 2.0 8.0 0.00 0.00 0.00 24 1006.9
20260508004101 74 297 4.0 8.0 0.00 0.00 0.00 23 1007.1
20260508003603 74 286 6.0 8.0 0.00 0.00 0.00 24 1007.2
20260508003100 74 319 4.0 6.0 0.00 0.00 0.00 24 1007.2
20260508002559 74 318 2.0 6.0 0.00 0.00 0.00 24 1007.3
20260508002059 74 307 4.0 8.0 0.00 0.00 0.00 24 1007.3
20260508001600 74 315 5.0 8.0 0.00 0.00 0.00 23 1007.5
20260508001103 74 321 2.0 6.0 0.00 0.00 0.00 24 1007.4
20260508000602 75 284 2.0 8.0 0.00 0.00 0.00 23 1007.5
20260507235558 75 314 5.0 8.0 0.00 0.00 0.00 23 1007.5
20260507235057 75 235 3.0 12.0 0.00 0.00 0.00 22 1007.5
20260507234602 75 319 4.0 12.0 0.00 0.00 0.00 23 1007.5
20260507234058 75 300 1.0 8.0 0.00 0.00 0.00 23 1007.7
20260507233559 75 287 3.0 12.0 0.00 0.00 0.00 23 1007.7
20260507233115 75 328 5.0 12.0 0.00 0.00 0.00 23 1007.7
20260507232556 76 331 6.0 11.0 0.00 0.00 0.00 22 1007.7
20260507232057 76 322 3.0 13.0 0.00 0.00 0.00 21 1007.8
20260507231554 76 322 4.0 11.0 0.00 0.00 0.00 22 1007.9
20260507231053 77 313 7.0 11.0 0.00 0.00 0.00 22 1008.0
20260507230552 76 307 5.0 11.0 0.00 0.00 0.00 23 1008.1
20260507230052 76 326 5.0 10.0 0.00 0.00 0.00 22 1008.2
20260507225551 75 355 5.0 13.0 0.00 0.00 0.00 22 1008.5
20260507225050 75 346 2.0 13.0 0.00 0.00 0.00 23 1008.5